| time (UTC) | temp F | wind direction | speed knots | gust knots | rain 1hr in | rain 24hr in | rain mn in | humidity % | barometer mb |
| 20260507031540 | 56 | 61 | 2.6 | 6.1 | 0.00 | 0.00 | 0.00 | 76 | 1017.7 |
| 20260507030040 | 56 | 88 | 2.6 | 7.0 | 0.00 | 0.00 | 0.00 | 75 | 1017.5 |
| 20260507024541 | 57 | 45 | 4.3 | 7.8 | 0.00 | 0.00 | 0.00 | 75 | 1017.3 |
| 20260507023037 | 57 | 66 | 2.6 | 7.0 | 0.00 | 0.00 | 0.00 | 75 | 1017.2 |
| 20260507021544 | 58 | 41 | 3.5 | 7.8 | 0.00 | 0.00 | 0.00 | 74 | 1017.1 |
| 20260507020042 | 58 | 49 | 3.5 | 6.1 | 0.00 | 0.00 | 0.00 | 73 | 1016.6 |
| 20260507014548 | 58 | 39 | 2.6 | 5.2 | 0.00 | 0.00 | 0.00 | 73 | 1016.5 |
| 20260507013036 | 59 | 40 | 1.7 | 4.3 | 0.00 | 0.00 | 0.00 | 71 | 1016.4 |
| 20260507011539 | 60 | 74 | 2.6 | 6.1 | 0.00 | 0.00 | 0.00 | 69 | 1016.2 |
| 20260507010037 | 60 | 15 | 3.5 | 10.4 | 0.00 | 0.00 | 0.00 | 68 | 1016.0 |
| 20260507004542 | 61 | 61 | 4.3 | 11.3 | 0.00 | 0.00 | 0.00 | 67 | 1016.0 |
| 20260507003039 | 61 | 10 | 5.2 | 11.3 | 0.00 | 0.00 | 0.00 | 66 | 1015.8 |
| 20260507001546 | 62 | 21 | 6.1 | 10.4 | 0.00 | 0.00 | 0.00 | 65 | 1015.6 |
| 20260507000037 | 63 | 327 | 5.2 | 11.3 | 0.00 | 0.00 | 0.00 | 65 | 1015.4 |
| 20260506234536 | 64 | 11 | 4.3 | 12.2 | 0.00 | 0.00 | 0.00 | 64 | 1015.3 |
| 20260506233041 | 64 | 352 | 5.2 | 11.3 | 0.00 | 0.00 | 0.00 | 63 | 1015.2 |
| 20260506231538 | 65 | 319 | 4.3 | 11.3 | 0.00 | 0.00 | 0.00 | 62 | 1015.0 |
| 20260506230040 | 67 | 18 | 6.1 | 10.4 | 0.00 | 0.00 | 0.00 | 60 | 1014.9 |
| 20260506224535 | 67 | 308 | 4.3 | 10.4 | 0.00 | 0.00 | 0.00 | 60 | 1014.6 |
| 20260506223033 | 68 | 348 | 5.2 | 11.3 | 0.00 | 0.00 | 0.00 | 58 | 1014.4 |
| 20260506221538 | 68 | 352 | 3.5 | 9.6 | 0.00 | 0.00 | 0.00 | 60 | 1014.3 |
| 20260506220041 | 69 | 345 | 4.3 | 9.6 | 0.00 | 0.00 | 0.00 | 57 | 1014.1 |
| 20260506214543 | 69 | 327 | 3.5 | 9.6 | 0.00 | 0.00 | 0.00 | 57 | 1014.2 |
| 20260506213036 | 69 | 24 | 4.3 | 11.3 | 0.00 | 0.00 | 0.00 | 58 | 1014.3 |
| 20260506211534 | 69 | 39 | 5.2 | 8.7 | 0.00 | 0.00 | 0.00 | 58 | 1014.5 |
| 20260506210041 | 69 | 15 | 2.6 | 9.6 | 0.00 | 0.00 | 0.00 | 61 | 1014.6 |
| 20260506204542 | 67 | 67 | 4.3 | 7.8 | 0.00 | 0.00 | 0.00 | 61 | 1014.7 |
| 20260506203035 | 66 | 47 | 5.2 | 10.4 | 0.00 | 0.00 | 0.00 | 60 | 1014.9 |
| 20260506201535 | 66 | 50 | 3.5 | 8.7 | 0.00 | 0.00 | 0.00 | 61 | 1015.1 |
| 20260506200035 | 65 | 74 | 3.5 | 9.6 | 0.00 | 0.00 | 0.00 | 62 | 1015.2 |
| 20260506194542 | 65 | 39 | 3.5 | 9.6 | 0.00 | 0.00 | 0.00 | 62 | 1015.4 |
| 20260506193038 | 64 | 74 | 3.5 | 12.2 | 0.00 | 0.00 | 0.00 | 63 | 1015.5 |
| 20260506191537 | 63 | 40 | 3.5 | 8.7 | 0.00 | 0.00 | 0.00 | 64 | 1015.8 |
| 20260506190035 | 63 | 32 | 6.1 | 11.3 | 0.00 | 0.00 | 0.00 | 65 | 1016.0 |
| 20260506184539 | 61 | 303 | 3.5 | 8.7 | 0.00 | 0.00 | 0.00 | 67 | 1016.1 |
| 20260506183039 | 61 | 360 | 3.5 | 9.6 | 0.00 | 0.00 | 0.00 | 68 | 1016.2 |
| 20260506181544 | 60 | 36 | 4.3 | 9.6 | 0.00 | 0.00 | 0.00 | 68 | 1016.3 |
| 20260506180051 | 58 | 335 | 2.6 | 8.7 | 0.00 | 0.00 | 0.00 | 72 | 1016.4 |
| 20260506174540 | 57 | 13 | 3.5 | 9.6 | 0.00 | 0.00 | 0.00 | 71 | 1016.5 |
| 20260506173052 | 57 | 313 | 3.5 | 8.7 | 0.00 | 0.00 | 0.00 | 73 | 1016.6 |
| 20260506171539 | 56 | 23 | 6.1 | 11.3 | 0.00 | 0.00 | 0.00 | 73 | 1016.9 |
| 20260506170039 | 55 | 316 | 4.3 | 13.0 | 0.00 | 0.00 | 0.00 | 75 | 1016.7 |
| 20260506164536 | 55 | 350 | 4.3 | 9.6 | 0.00 | 0.00 | 0.00 | 76 | 1016.4 |
| 20260506163041 | 54 | 14 | 6.1 | 9.6 | 0.00 | 0.00 | 0.00 | 76 | 1016.5 |
| 20260506161542 | 54 | 342 | 7.0 | 12.2 | 0.00 | 0.00 | 0.00 | 77 | 1016.4 |
| 20260506160040 | 53 | 5 | 6.1 | 11.3 | 0.00 | 0.00 | 0.00 | 79 | 1016.3 |
| 20260506154540 | 53 | 15 | 7.0 | 13.0 | 0.00 | 0.00 | 0.00 | 80 | 1016.0 |
| 20260506153035 | 52 | 29 | 7.8 | 13.9 | 0.00 | 0.00 | 0.00 | 82 | 1015.9 |
| 20260506151536 | 52 | 323 | 7.0 | 13.9 | 0.00 | 0.00 | 0.00 | 83 | 1015.7 |
| 20260506150044 | 51 | 15 | 6.1 | 13.0 | 0.00 | 0.00 | 0.00 | 85 | 1015.5 |
| 20260506144558 | 51 | 9 | 3.5 | 13.0 | 0.00 | 0.00 | 0.00 | 85 | 1015.9 |
| 20260506143038 | 51 | 335 | 5.2 | 12.2 | 0.00 | 0.00 | 0.00 | 85 | 1015.6 |
| 20260506141537 | 51 | 5 | 5.2 | 9.6 | 0.00 | 0.00 | 0.00 | 85 | 1016.1 |
| 20260506140042 | 51 | 350 | 2.6 | 7.0 | 0.00 | 0.00 | 0.00 | 85 | 1016.8 |
| 20260506134542 | 50 | 332 | 0.9 | 12.2 | 0.00 | 0.00 | 0.00 | 85 | 1017.7 |
| 20260506133043 | 50 | 5 | 4.3 | 9.6 | 0.00 | 0.00 | 0.00 | 85 | 1015.5 |
| 20260506131536 | 50 | 338 | 0.9 | 12.2 | 0.00 | 0.00 | 0.00 | 85 | 1016.5 |
| 20260506130038 | 50 | 31 | 6.1 | 11.3 | 0.00 | 0.00 | 0.00 | 84 | 1015.2 |
| 20260506124538 | 50 | 28 | 4.3 | 9.6 | 0.00 | 0.00 | 0.00 | 84 | 1015.6 |
| 20260506123040 | 51 | 16 | 4.3 | 10.4 | 0.00 | 0.00 | 0.00 | 84 | 1016.0 |
| 20260506121538 | 51 | 34 | 4.3 | 11.3 | 0.00 | 0.00 | 0.00 | 83 | 1014.4 |
| 20260506120038 | 51 | 348 | 5.2 | 13.9 | 0.00 | 0.00 | 0.00 | 83 | 1013.8 |
| 20260506114535 | 51 | 329 | 5.2 | 12.2 | 0.00 | 0.00 | 0.00 | 82 | 1014.1 |
| 20260506113041 | 51 | 38 | 5.2 | 12.2 | 0.00 | 0.00 | 0.00 | 82 | 1013.9 |
| 20260506111538 | 52 | 350 | 5.2 | 11.3 | 0.00 | 0.00 | 0.00 | 83 | 1013.9 |
| 20260506110042 | 52 | 360 | 7.0 | 13.0 | 0.00 | 0.00 | 0.00 | 83 | 1013.9 |
| 20260506104537 | 52 | 9 | 6.1 | 10.4 | 0.00 | 0.00 | 0.00 | 83 | 1013.6 |
| 20260506103037 | 52 | 36 | 4.3 | 9.6 | 0.00 | 0.00 | 0.00 | 84 | 1013.4 |
| 20260506101539 | 52 | 325 | 3.5 | 10.4 | 0.00 | 0.00 | 0.00 | 84 | 1013.1 |
| 20260506100040 | 52 | 5 | 3.5 | 8.7 | 0.00 | 0.00 | 0.00 | 84 | 1012.9 |
| 20260506094535 | 51 | 28 | 2.6 | 7.8 | 0.00 | 0.00 | 0.00 | 84 | 1012.5 |
| 20260506093040 | 51 | 10 | 2.6 | 7.8 | 0.00 | 0.00 | 0.00 | 84 | 1012.2 |
| 20260506091543 | 51 | 349 | 3.5 | 8.7 | 0.00 | 0.00 | 0.00 | 84 | 1012.3 |
| 20260506090041 | 51 | 360 | 3.5 | 7.8 | 0.00 | 0.00 | 0.00 | 84 | 1012.4 |
| 20260506084539 | 51 | 350 | 3.5 | 8.7 | 0.00 | 0.00 | 0.00 | 84 | 1012.2 |
| 20260506083038 | 52 | 5 | 2.6 | 7.0 | 0.00 | 0.00 | 0.00 | 84 | 1012.4 |
| 20260506081535 | 52 | 11 | 3.5 | 10.4 | 0.00 | 0.00 | 0.00 | 84 | 1012.3 |
| 20260506073044 | 53 | 13 | 3.5 | 8.7 | 0.00 | 0.00 | 0.00 | 84 | 1012.2 |
| 20260506071536 | 53 | 336 | 2.6 | 7.8 | 0.00 | 0.00 | 0.00 | 84 | 1012.2 |
| 20260506061539 | 55 | 352 | 2.6 | 5.2 | 0.00 | 0.00 | 0.00 | 83 | 1012.1 |
| 20260506044546 | 58 | 25 | 6.1 | 11.3 | 0.00 | 0.00 | 0.00 | 76 | 1011.6 |
| 20260506043036 | 60 | 30 | 6.1 | 11.3 | 0.00 | 0.00 | 0.00 | 74 | 1011.7 |
| 20260506041551 | 61 | 15 | 6.1 | 11.3 | 0.00 | 0.00 | 0.00 | 73 | 1011.5 |
| 20260506040041 | 62 | 28 | 7.0 | 11.3 | 0.00 | 0.00 | 0.00 | 71 | 1011.3 |
| 20260506034544 | 63 | 26 | 2.6 | 9.6 | 0.00 | 0.00 | 0.00 | 69 | 1011.2 |
| 20260506033038 | 64 | 346 | 6.1 | 11.3 | 0.00 | 0.00 | 0.00 | 68 | 1011.1 |